When you browse on this site, cookies collect data to enhance your experience and personalize the content and advertising you see.
Visit our Privacy Policy to learn more. By continuing to use the site, you agree to this use of cookies and data.
  • In Schweiz
  • Länderverzeichnis
  • Für 7 Tage
  • Wassertemperatur
  • Satellitenkarten
  • Wetterkarte
  • Widgets
  • user-avatar
    Anmelden

    Stündliche Wetter Plateaux

    Heute, 19 April, Freitag

    Zeit Temperatur Niederschläge Wind Luftdruck Luftfeuchtigkeit
    00:00 +27°C° 0.2 mm 2 m/S 719 mmHg 81%
    01:00 +27°C° 0.2 mm 2 m/S 719 mmHg 83%
    02:00 +27°C° 0.6 mm 2 m/S 719 mmHg 84%
    03:00 +26°C° 0.6 mm 2 m/S 719 mmHg 86%
    04:00 +26°C° 0.6 mm 2 m/S 719 mmHg 88%
    05:00 +26°C° 0.8 mm 2 m/S 720 mmHg 87%
    06:00 +26°C° 0.8 mm 2 m/S 721 mmHg 87%
    07:00 +26°C° 0.8 mm 2 m/S 721 mmHg 86%
    08:00 +27°C° 1.8 mm 2 m/S 722 mmHg 83%
    09:00 +28°C° 1.8 mm 2 m/S 722 mmHg 79%
    10:00 +29°C° 1.8 mm 1 m/S 722 mmHg 75%
    11:00 +31°C° 0 mm 1 m/S 722 mmHg 69%
    12:00 +32°C° 0 mm 1 m/S 722 mmHg 62%
    13:00 +34°C° 0 mm 1 m/S 721 mmHg 56%
    14:00 +33°C° 0.4 mm 1 m/S 720 mmHg 58%
    15:00 +30°C° 0.4 mm 0 m/S 720 mmHg 60%
    16:00 +30°C° 0.4 mm 0 m/S 719 mmHg 63%
    17:00 +29°C° 0 mm 0 m/S 719 mmHg 66%
    18:00 +30°C° 0 mm 1 m/S 719 mmHg 69%
    19:00 +29°C° 0 mm 1 m/S 720 mmHg 73%
    20:00 +28°C° 0 mm 1 m/S 720 mmHg 75%
    21:00 +28°C° 0 mm 1 m/S 720 mmHg 77%
    22:00 +27°C° 0 mm 2 m/S 720 mmHg 80%
    23:00 +27°C° 0 mm 2 m/S 720 mmHg 82%

    Morgen, 20 April, Samstag

    Zeit Temperatur Niederschläge Wind Luftdruck Luftfeuchtigkeit
    00:00 +26°C° 0 mm 2 m/S 720 mmHg 83%
    01:00 +26°C° 0 mm 2 m/S 720 mmHg 85%
    02:00 +26°C° 0 mm 2 m/S 720 mmHg 86%
    03:00 +26°C° 0 mm 2 m/S 720 mmHg 87%
    04:00 +25°C° 0 mm 2 m/S 720 mmHg 88%
    05:00 +26°C° 0 mm 2 m/S 720 mmHg 87%
    06:00 +26°C° 0 mm 2 m/S 720 mmHg 86%
    07:00 +26°C° 0 mm 2 m/S 721 mmHg 85%
    08:00 +28°C° 0.2 mm 1 m/S 721 mmHg 77%
    09:00 +31°C° 0.2 mm 1 m/S 722 mmHg 68%
    10:00 +33°C° 0.2 mm 1 m/S 722 mmHg 60%
    11:00 +32°C° 0.3 mm 0 m/S 722 mmHg 55%
    12:00 +34°C° 0.3 mm 0 m/S 721 mmHg 50%
    13:00 +35°C° 0.3 mm 0 m/S 720 mmHg 46%
    14:00 +36°C° 0.1 mm 1 m/S 720 mmHg 49%
    15:00 +34°C° 0.1 mm 1 m/S 719 mmHg 53%
    16:00 +34°C° 0.1 mm 2 m/S 718 mmHg 57%
    17:00 +32°C° 0.4 mm 2 m/S 718 mmHg 64%
    18:00 +30°C° 0.4 mm 1 m/S 719 mmHg 70%
    19:00 +29°C° 0.4 mm 1 m/S 719 mmHg 77%
    20:00 +28°C° 0 mm 1 m/S 719 mmHg 78%
    21:00 +28°C° 0 mm 1 m/S 720 mmHg 78%
    22:00 +26°C° 0 mm 0 m/S 720 mmHg 78%
    23:00 +28°C° 0 mm 1 m/S 720 mmHg 79%

    übermorgen, 21 April, Sonntag

    Zeit Temperatur Niederschläge Wind Luftdruck Luftfeuchtigkeit
    00:00 +27°C° 0 mm 1 m/S 720 mmHg 80%
    01:00 +27°C° 0 mm 1 m/S 719 mmHg 80%
    02:00 +27°C° 0.1 mm 1 m/S 719 mmHg 82%
    03:00 +26°C° 0.1 mm 1 m/S 719 mmHg 84%
    04:00 +26°C° 0.1 mm 1 m/S 719 mmHg 86%
    05:00 +26°C° 2.2 mm 1 m/S 719 mmHg 87%
    06:00 +26°C° 2.2 mm 2 m/S 720 mmHg 88%
    07:00 +26°C° 2.2 mm 2 m/S 720 mmHg 90%
    08:00 +27°C° 0.2 mm 1 m/S 721 mmHg 85%
    09:00 +29°C° 0.2 mm 1 m/S 721 mmHg 80%
    10:00 +30°C° 0.2 mm 1 m/S 721 mmHg 75%
    11:00 +32°C° 0.2 mm 1 m/S 721 mmHg 66%
    12:00 +34°C° 0.2 mm 1 m/S 720 mmHg 56%
    13:00 +35°C° 0.2 mm 0 m/S 719 mmHg 46%
    14:00 +34°C° 0 mm 0 m/S 719 mmHg 46%
    15:00 +36°C° 0 mm 1 m/S 718 mmHg 46%
    16:00 +35°C° 0 mm 1 m/S 717 mmHg 47%
    17:00 +34°C° 0 mm 1 m/S 718 mmHg 51%
    18:00 +32°C° 0 mm 1 m/S 718 mmHg 56%
    19:00 +31°C° 0 mm 1 m/S 718 mmHg 61%
    20:00 +30°C° 0 mm 1 m/S 719 mmHg 63%
    21:00 +29°C° 0 mm 1 m/S 719 mmHg 66%
    22:00 +29°C° 0 mm 2 m/S 719 mmHg 68%
    23:00 +28°C° 0 mm 2 m/S 719 mmHg 73%

    22 April, Montag

    Zeit Temperatur Niederschläge Wind Luftdruck Luftfeuchtigkeit
    00:00 +28°C° 0 mm 2 m/S 719 mmHg 78%
    01:00 +27°C° 0 mm 2 m/S 718 mmHg 83%
    02:00 +27°C° 0 mm 2 m/S 718 mmHg 84%
    03:00 +27°C° 0 mm 2 m/S 718 mmHg 86%
    04:00 +26°C° 0 mm 2 m/S 718 mmHg 88%
    05:00 +27°C° 0 mm 2 m/S 718 mmHg 86%
    06:00 +27°C° 0 mm 2 m/S 719 mmHg 85%
    07:00 +27°C° 0 mm 2 m/S 719 mmHg 83%
    08:00 +29°C° 0 mm 2 m/S 720 mmHg 74%
    09:00 +32°C° 0 mm 2 m/S 720 mmHg 65%
    10:00 +35°C° 0 mm 2 m/S 721 mmHg 55%
    11:00 +36°C° 0 mm 2 m/S 720 mmHg 52%
    12:00 +36°C° 0 mm 2 m/S 719 mmHg 49%
    13:00 +37°C° 0 mm 2 m/S 718 mmHg 45%
    14:00 +36°C° 0 mm 1 m/S 717 mmHg 46%
    15:00 +36°C° 0 mm 1 m/S 717 mmHg 47%
    16:00 +35°C° 0 mm 1 m/S 717 mmHg 47%
    17:00 +34°C° 0 mm 1 m/S 717 mmHg 51%
    18:00 +33°C° 0 mm 1 m/S 717 mmHg 55%
    19:00 +31°C° 0 mm 1 m/S 718 mmHg 59%
    20:00 +31°C° 0 mm 1 m/S 718 mmHg 62%
    21:00 +30°C° 0 mm 1 m/S 718 mmHg 66%
    22:00 +29°C° 0 mm 1 m/S 719 mmHg 70%
    23:00 +28°C° 0 mm 1 m/S 718 mmHg 73%

    23 April, Dienstag

    Zeit Temperatur Niederschläge Wind Luftdruck Luftfeuchtigkeit
    00:00 +28°C° 0 mm 1 m/S 718 mmHg 76%
    01:00 +28°C° 0 mm 2 m/S 718 mmHg 79%
    02:00 +27°C° 0 mm 2 m/S 718 mmHg 80%
    03:00 +27°C° 0 mm 2 m/S 718 mmHg 81%
    04:00 +27°C° 0 mm 2 m/S 718 mmHg 82%
    05:00 +27°C° 0 mm 2 m/S 718 mmHg 81%
    06:00 +27°C° 0 mm 2 m/S 719 mmHg 81%
    07:00 +27°C° 0 mm 2 m/S 719 mmHg 81%
    08:00 +30°C° 0 mm 2 m/S 719 mmHg 73%
    09:00 +32°C° 0 mm 2 m/S 720 mmHg 65%
    10:00 +35°C° 0 mm 2 m/S 720 mmHg 56%
    11:00 +36°C° 0.1 mm 2 m/S 719 mmHg 52%
    12:00 +37°C° 0.1 mm 2 m/S 719 mmHg 47%
    13:00 +38°C° 0.1 mm 2 m/S 718 mmHg 42%
    14:00 +37°C° 0 mm 2 m/S 717 mmHg 44%
    15:00 +36°C° 0 mm 1 m/S 717 mmHg 46%
    16:00 +35°C° 0 mm 1 m/S 717 mmHg 49%
    17:00 +34°C° 0 mm 1 m/S 717 mmHg 52%
    18:00 +33°C° 0 mm 1 m/S 717 mmHg 55%
    19:00 +32°C° 0 mm 1 m/S 718 mmHg 58%
    20:00 +31°C° 0 mm 1 m/S 718 mmHg 60%
    21:00 +30°C° 0 mm 1 m/S 718 mmHg 63%
    22:00 +30°C° 0 mm 2 m/S 719 mmHg 65%
    23:00 +29°C° 0 mm 2 m/S 718 mmHg 70%

    24 April, Mittwoch

    Zeit Temperatur Niederschläge Wind Luftdruck Luftfeuchtigkeit
    00:00 +29°C° 0 mm 2 m/S 718 mmHg 74%
    01:00 +28°C° 0 mm 2 m/S 718 mmHg 78%
    02:00 +28°C° 0 mm 2 m/S 718 mmHg 79%
    03:00 +27°C° 0 mm 2 m/S 718 mmHg 79%
    04:00 +27°C° 0 mm 2 m/S 718 mmHg 80%
    05:00 +27°C° 0 mm 2 m/S 718 mmHg 81%
    06:00 +27°C° 0 mm 3 m/S 719 mmHg 82%
    07:00 +27°C° 0 mm 3 m/S 719 mmHg 83%
    08:00 +29°C° 0 mm 3 m/S 720 mmHg 76%
    09:00 +31°C° 0 mm 3 m/S 720 mmHg 68%
    10:00 +34°C° 0 mm 3 m/S 720 mmHg 61%
    11:00 +35°C° 0.1 mm 2 m/S 719 mmHg 56%
    12:00 +36°C° 0.1 mm 2 m/S 719 mmHg 52%
    13:00 +38°C° 0.1 mm 2 m/S 718 mmHg 47%
    14:00 +37°C° 0 mm 2 m/S 718 mmHg 48%
    15:00 +37°C° 0 mm 2 m/S 717 mmHg 50%
    16:00 +36°C° 0 mm 2 m/S 717 mmHg 51%
    17:00 +35°C° 0.2 mm 2 m/S 717 mmHg 58%
    18:00 +33°C° 0.2 mm 3 m/S 717 mmHg 64%
    19:00 +30°C° 0.2 mm 3 m/S 718 mmHg 71%
    20:00 +30°C° 0.1 mm 3 m/S 718 mmHg 72%
    21:00 +29°C° 0.1 mm 3 m/S 718 mmHg 73%
    22:00 +29°C° 0.1 mm 2 m/S 719 mmHg 74%
    23:00 +28°C° 1.1 mm 2 m/S 719 mmHg 78%
    Mehr zeigen